Weather History for EINN - July, 2014

Change the Weather History Date:

Tuesday, July 22, 2014

  Actual Average Record
Temperature  
Mean Temperature 70 °F -  
Max Temperature 76 °F 67 °F 80 °F (2000)
Min Temperature 64 °F 53 °F 46 °F (2011)
Cooling Degree Days 5    
Growing Degree Days 20 (Base 50)    
Moisture  
Dew Point 63 °F    
Average Humidity 78    
Maximum Humidity 100    
Minimum Humidity 56    
Precipitation  
Precipitation 0.00 in 0.10 in - ()
Sea Level Pressure  
Sea Level Pressure 30.18 in    
Wind  
Wind Speed 7 mph ()    
Max Wind Speed 14 mph    
Max Gust Speed -    
Visibility 7.8 miles    
Events Rain    
Averages and records for this station are not official NWS values.
T = Trace of Precipitation, MM = Missing Value Source: Averaged Metar Reports

Daily Weather History Graph

Daily Weather History Graph

Search for Another Location

Airport or City:

Trip Planner

Search our weather history database for the weather conditions in past years. The results will help you decide how hot, cold, wet, or windy it might be!

Date:

Astronomy

Jul. 22, 2014 Rise Set
Actual Time 5:39 AM IST 9:44 PM IST
Civil Twilight 4:54 AM IST 10:29 PM IST
Nautical Twilight 3:48 AM IST 11:33 PM IST
Astronomical Twilight 2:14 AM IST 1:09 AM IST
Moon 2:10 AM IST (7/22) 6:05 PM IST (7/22)
Length of Visible Light 17h 34m
Length of Day
16h 04m
Waning Crescent, 18% of the Moon is Illuminated
Jul 22
Waning Crescent
Jul 26
New
Aug 4
First Quarter
Aug 10
Full
Aug 17
Last Quarter

Hourly Weather History & Observations

Time (IST) Temp. Dew Point Humidity Pressure Visibility Wind Dir Wind Speed Gust Speed Precip Events Conditions
12:00 AM 67 °F 65 °F 93% 30.16 in 12 mi ESE 6.7 mph - - Rain Light Rain
12:00 AM 68.0 °F 66.2 °F 94% 30.15 in 6.2 mi ESE 5.8 mph - N/A   Mostly Cloudy
12:30 AM 66.2 °F 64.4 °F 94% 30.15 in 6.2 mi SE 4.6 mph - N/A   Mostly Cloudy
1:00 AM 67 °F 65 °F 89% 30.17 in 12 mi ESE 6.7 mph - -   Partly Cloudy
1:00 AM 66.2 °F 64.4 °F 94% 30.15 in 6.2 mi ESE 5.8 mph - N/A   Mostly Cloudy
1:30 AM 66.2 °F 64.4 °F 94% 30.15 in 6.2 mi ESE 5.8 mph - N/A   Mostly Cloudy
2:00 AM 66 °F 65 °F 94% 30.17 in 12 mi SE 4.5 mph - -   Overcast
2:00 AM 66.2 °F 64.4 °F 94% 30.15 in 6.2 mi SE 4.6 mph - N/A   Mostly Cloudy
2:30 AM 66.2 °F 64.4 °F 94% 30.15 in 6.2 mi SSE 4.6 mph - N/A   Overcast
3:00 AM 66 °F 64 °F 90% 30.17 in 12 mi SE 6.7 mph - -   Overcast
3:00 AM 66.2 °F 64.4 °F 94% 30.15 in 6.2 mi SE 5.8 mph - N/A   Mostly Cloudy
3:30 AM 66.2 °F 64.4 °F 94% 30.15 in 6.2 mi ESE 5.8 mph - N/A   Mostly Cloudy
4:00 AM 66 °F 64 °F 90% 30.16 in 12 mi ESE 6.7 mph - -   Partly Cloudy
4:00 AM 66.2 °F 64.4 °F 94% 30.15 in 6.2 mi ESE 6.9 mph - N/A   Mostly Cloudy
4:30 AM 66.2 °F 64.4 °F 94% 30.15 in 6.2 mi ESE 8.1 mph - N/A   Mostly Cloudy
5:00 AM 65 °F 64 °F 93% 30.16 in 12 mi SE 8.9 mph - -   Mostly Cloudy
5:00 AM 64.4 °F 64.4 °F 100% 30.15 in 6.2 mi SE 8.1 mph - N/A   Mostly Cloudy
5:30 AM 64.4 °F 62.6 °F 94% 30.15 in 6.2 mi SE 5.8 mph - N/A   Mostly Cloudy
6:00 AM 65 °F 63 °F 89% 30.17 in 12 mi SE 6.7 mph - -   Overcast
6:30 AM 64.4 °F 62.6 °F 94% 30.15 in 6.2 mi SE 8.1 mph - N/A   Mostly Cloudy
7:00 AM 65 °F 63 °F 91% 30.17 in 12 mi ESE 8.9 mph - -   Overcast
7:00 AM 64.4 °F 62.6 °F 94% 30.15 in 6.2 mi ESE 8.1 mph - N/A   Mostly Cloudy
7:30 AM 66.2 °F 62.6 °F 88% 30.15 in 6.2 mi ESE 8.1 mph - N/A   Mostly Cloudy
8:00 AM 66 °F 64 °F 90% 30.19 in 16 mi ESE 8.9 mph - -   Mostly Cloudy
8:00 AM 66.2 °F 64.4 °F 94% 30.18 in 6.2 mi ESE 8.1 mph - N/A   Mostly Cloudy
8:30 AM 66.2 °F 64.4 °F 94% 30.18 in 6.2 mi ESE 9.2 mph - N/A   Mostly Cloudy
9:00 AM 67 °F 64 °F 88% 30.19 in 16 mi SE 8.9 mph - -   Mostly Cloudy
9:00 AM 68.0 °F 64.4 °F 88% 30.18 in 6.2 mi SE 9.2 mph - N/A   Mostly Cloudy
9:30 AM 68.0 °F 64.4 °F 88% 30.18 in 6.2 mi SE 9.2 mph - N/A   Mostly Cloudy
10:00 AM 68 °F 64 °F 82% 30.20 in 19 mi SE 8.9 mph - -   Mostly Cloudy
10:00 AM 68.0 °F 64.4 °F 88% 30.18 in 6.2 mi SE 8.1 mph - N/A   Mostly Cloudy
10:30 AM 69.8 °F 64.4 °F 83% 30.18 in 6.2 mi SE 9.2 mph - N/A   Mostly Cloudy
11:00 AM 71 °F 64 °F 74% 30.19 in 31 mi SE 11.2 mph - -   Mostly Cloudy
11:00 AM 71.6 °F 64.4 °F 78% 30.18 in 6.2 mi SE 10.4 mph - N/A   Mostly Cloudy
11:30 AM 71.6 °F 64.4 °F 78% 30.18 in 6.2 mi SE 8.1 mph - N/A   Mostly Cloudy
12:00 PM 73 °F 65 °F 69% 30.20 in 31 mi SSE 11.2 mph - -   Mostly Cloudy
12:00 PM 73.4 °F 64.4 °F 73% 30.18 in 6.2 mi SSE 10.4 mph - N/A   Mostly Cloudy
12:30 PM 73.4 °F 62.6 °F 69% 30.18 in 6.2 mi SSE 11.5 mph - N/A   Mostly Cloudy
1:00 PM 74 °F 64 °F 62% 30.20 in 31 mi SE 11.2 mph - -   Mostly Cloudy
1:00 PM 75.2 °F 64.4 °F 69% 30.18 in 6.2 mi SE 11.5 mph - N/A   Mostly Cloudy
1:30 PM 75.2 °F 64.4 °F 69% 30.18 in 6.2 mi SE 9.2 mph - N/A   Mostly Cloudy
2:00 PM 74 °F 63 °F 61% 30.20 in 31 mi SE 11.2 mph - -   Mostly Cloudy
2:00 PM 75.2 °F 62.6 °F 65% 30.18 in 6.2 mi SE 11.5 mph - N/A   Mostly Cloudy
2:30 PM 75.2 °F 62.6 °F 65% 30.18 in 6.2 mi SE 11.5 mph - N/A   Mostly Cloudy
3:00 PM 76 °F 64 °F 57% 30.19 in 31 mi SE 11.2 mph - -   Mostly Cloudy
3:00 PM 75.2 °F 64.4 °F 69% 30.18 in 6.2 mi SE 10.4 mph - N/A   Mostly Cloudy
3:30 PM 75.2 °F 62.6 °F 65% 30.18 in 6.2 mi SE 11.5 mph - N/A   Scattered Clouds
4:00 PM 76 °F 63 °F 56% 30.19 in 25 mi SE 11.2 mph - -   Mostly Cloudy
4:00 PM 77.0 °F 62.6 °F 61% 30.18 in 6.2 mi SE 11.5 mph - N/A   Mostly Cloudy
4:30 PM 75.2 °F 62.6 °F 65% 30.18 in 6.2 mi SE 11.5 mph - N/A   Mostly Cloudy
5:00 PM 74 °F 62 °F 58% 30.19 in 25 mi SSE 13.4 mph - -   Mostly Cloudy
5:00 PM 73.4 °F 62.6 °F 69% 30.18 in 6.2 mi SSE 13.8 mph - N/A   Mostly Cloudy
5:30 PM 73.4 °F 62.6 °F 69% 30.18 in 6.2 mi SSE 11.5 mph - N/A Rain Light Rain Showers
6:00 PM 74 °F 62 °F 56% 30.19 in 25 mi SSE 11.2 mph - - Rain Light Rain Showers
6:00 PM 73.4 °F 60.8 °F 65% 30.18 in 6.2 mi SSE 10.4 mph - N/A   Mostly Cloudy
6:30 PM 75.2 °F 60.8 °F 61% 30.18 in 6.2 mi SSE 11.5 mph - N/A   Mostly Cloudy
7:00 PM 74 °F 62 °F 57% 30.19 in 25 mi SSE 11.2 mph - -   Partly Cloudy
7:00 PM 75.2 °F 62.6 °F 65% 30.18 in 6.2 mi SSE 11.5 mph - N/A   Mostly Cloudy
7:30 PM 73.4 °F 60.8 °F 65% 30.18 in 6.2 mi SSE 9.2 mph - N/A   Scattered Clouds
8:00 PM 73 °F 62 °F 60% 30.19 in 25 mi SE 8.9 mph - -   Scattered Clouds
8:00 PM 73.4 °F 62.6 °F 69% 30.18 in 6.2 mi SE 8.1 mph - N/A   Mostly Cloudy
8:30 PM 71.6 °F 60.8 °F 69% 30.18 in 6.2 mi SE 9.2 mph - N/A   Scattered Clouds
9:00 PM 71 °F 62 °F 64% 30.20 in 25 mi SSE 11.2 mph - -   Scattered Clouds
9:00 PM 71.6 °F 60.8 °F 69% 30.18 in 6.2 mi SSE 10.4 mph - N/A   Mostly Cloudy
9:30 PM 69.8 °F 60.8 °F 73% 30.18 in 6.2 mi SSE 9.2 mph - N/A   Mostly Cloudy
10:00 PM 69 °F 60 °F 67% 30.21 in 22 mi SE 6.7 mph - -   Scattered Clouds
10:00 PM 69.8 °F 60.8 °F 73% 30.18 in 6.2 mi SE 6.9 mph - N/A   Mostly Cloudy
10:30 PM 68.0 °F 60.8 °F 78% 30.21 in 6.2 mi SE 8.1 mph - N/A   Mostly Cloudy
11:00 PM 68 °F 61 °F 72% 30.22 in 16 mi ESE 6.7 mph - -   Mostly Cloudy
11:00 PM 68.0 °F 60.8 °F 78% 30.21 in - SE 5.8 mph - N/A   Clear
11:30 PM 68.0 °F 60.8 °F 78% 30.21 in - ESE 4.6 mph - N/A   Clear